Weather Roundup
Issued by NWS Chicago, IL

Home | Current Version | Previous Version | Text Only | Print | Product List | Glossary On
Versions: 1 2 3 4 5 6 7 8 9 10 11 12 13 14 15 16 17 18 19 20 21 22 23 24 25 26 27 28 29 30 31 32 33 34 35 36 37 38 39 40 41 42 43 44 45 46 47 48 49 50
000
NZUS59 KLOT 221112
HRRLOT

CHICAGO AREA WEATHER ROUNDUP
NATIONAL WEATHER SERVICE CHICAGO/ROMEOVILLE IL
500 AM CST SUN JAN 22 2017

NOTE: "FAIR" INDICATES FEW OR NO CLOUDS BELOW 12,000 FEET WITH NO
SIGNIFICANT WEATHER AND/OR OBSTRUCTIONS TO VISIBILITY.

* THESE STATIONS ARE NOT UNDER NWS QUALITY CONTROL. THEY ALSO MAY NOT
  REPORT WEATHER SUCH AS PRECIPITATION OR FOG.

ILZ005-006-012>014-019>023-221200-
NORTHEAST ILLINOIS

CITY           SKY/WX    TMP DP  RH WIND       PRES   REMARKS
OHARE          CLOUDY    40  39  97 NW6       29.57F FOG
MIDWAY         CLOUDY    43  40  89 N5        29.57F FOG
AURORA         FOG       32  31  96 CALM      29.58S VSB 1/4
LANSING*       LGT RAIN  38  38 100 N3        29.58S VSB 1/4
JOLIET*        FOG       37  37 100 CALM      29.58S VSB<1/4
WAUKEGAN       FOG       38  38 100 CALM      29.56F VSB 1/2
DUPAGE AIRPORT FOG       34  32  92 CALM      29.57S VSB 1/4
WHEELING       CLOUDY    40  38  93 NW6       29.58F
KANKAKEE*      FOG       37  36  98 CALM      29.59R VSB 1/2
MORRIS*        FOG       33  32  97 CALM      29.57S VSB 1/4
LEWIS AIRPORT* FOG       35  35 100 NE6       29.57S VSB<1/4 WCI  30
NORTHERLY ISL    N/A     37  36  96 CALM        N/A
$$

WIZ051-052-058>065-066-070>072-221200-
SOUTHEAST WISCONSIN

CITY           SKY/WX    TMP DP  RH WIND       PRES   REMARKS
MILWAUKEE      CLOUDY    40  38  93 CALM      29.57S FOG
KENOSHA*       FOG       38  37  97 CALM      29.57S VSB 1/4
RACINE*        CLOUDY    37  35  92 CALM      29.59S FOG
WEST BEND      CLOUDY    39  39 100 W3        29.57S FOG
$$

INZ001>003-010>013-019-020-221200-
NORTHWEST INDIANA

CITY           SKY/WX    TMP DP  RH WIND       PRES   REMARKS
GARY*          CLOUDY    39  39 100 NE5       29.58F VSB 1/4
MICHIGAN CITY* NOT AVBL
RENSSELAER*    NOT AVBL
VALPARAISO     FOG       37  37 100 N6        29.58R VSB 1/4
$$

LMZ740>746-221200-
SOUTHERN LAKE MICHIGAN

STATION/POSITION TIME  SKY/WX   TEMP WIND        PRES    VSBY
                                AIR  DIR/SP/G
                 (UTC)          (F)  (DEG/KT/KT) (MB)    (MI)
HARRISON CRIB    1040            40   70/  7/  7   N/A
BURNHAM HARBOR   1100            36   CALM  /  2   N/A
CALUMET HARBOR   1048            37   70/  2/  4 1001.4F
BURNS HARBOR     1040            35   70/  6/  7 1002.4F
MICHIGAN CITY    1040            35   30/  6/  6   N/A
$$

ABBREVIATIONS USED IN REMARKS
   TC - TEMPERATURE IN CELSIUS
  WCI - WIND CHILL INDEX
   HX - HEAT INDEX
  VSB - VISIBILITY
$$




USA.gov is the U.S. government's official web portal to all federal, state and local government web resources and services.